{"data":{"norad_id":61605,"intl_designator":"2024-188M","name":"ONEWEB-0699","alt_names":[],"object_type":"PAYLOAD","status":"ACTIVE","operator":null,"country":"UK","launch_date":"2024-10-20","launch_site_code":"AFWTR","launch_vehicle":null,"mission":null,"orbit_class":"UNKNOWN","rcs_meters":null,"size_class":null,"mass_kg":null,"dimensions":null,"purposes":["comms"],"wikipedia_slug":null,"has_3d_model":false,"image_url":null,"decayed_at":null,"tle_current":{"epoch":"2026-09-19T16:04:02.170848Z","epoch_age_seconds":90065,"freshness":"FRESH","line1":"1 61605U 24188M   26262.66946957 -.00000303  00000+0 -90318-3 0  9992","line2":"2 61605  87.8910  17.4575 0001155  87.3245 272.8014 13.10375530 95683","mean_motion":13.1037553,"eccentricity":0.0001155,"inclination_deg":87.891,"raan_deg":17.4575,"arg_perigee_deg":87.3245,"mean_anomaly_deg":272.8014,"bstar":-0.00090318,"rev_number":9568,"period_min":109.89216198199,"perigee_km":1220.8288790114,"apogee_km":1222.584442897,"semimajor_km":7599.8436609542,"source":"CELESTRAK","updated_at":"2026-09-20T09:00:44.800420Z"}}}